Time,TemperatureF,DewpointF,PressureIn,WindDirection,WindDirectionDegrees,WindSpeedMPH,WindSpeedGustMPH,Humidity,HourlyPrecipIn,Conditions,Clouds,dailyrainin,SoftwareType,DateUTC
2013-03-14 00:07:00,30.7,4.4,29.59,NE,55,0.0,0.0,32,0.00,,,0.00,VWS V14.01,2013-03-14 04:07:00,
2013-03-14 00:22:00,30.9,4.5,29.59,SE,142,0.0,0.0,32,0.00,,,0.00,VWS V14.01,2013-03-14 04:22:00,
2013-03-14 00:36:00,30.9,3.8,29.59,SSW,192,0.0,0.0,31,0.00,,,0.00,VWS V14.01,2013-03-14 04:36:00,
2013-03-14 00:52:00,31.1,4.0,29.59,South,186,0.0,0.0,31,0.00,,,0.00,VWS V14.01,2013-03-14 04:52:00,
2013-03-14 01:07:00,30.9,3.8,29.59,SSE,160,0.0,0.0,31,0.00,,,0.00,VWS V14.01,2013-03-14 05:07:00,
2013-03-14 01:22:00,30.6,3.5,29.59,SE,137,0.0,0.0,31,0.00,,,0.00,VWS V14.01,2013-03-14 05:22:00,
2013-03-14 01:37:00,30.6,3.5,29.59,SSW,203,0.0,0.0,31,0.00,,,0.00,VWS V14.01,2013-03-14 05:37:00,
2013-03-14 02:07:00,30.6,2.8,29.59,SE,140,0.0,0.0,30,0.00,,,0.00,VWS V14.01,2013-03-14 06:07:00,
2013-03-14 02:22:00,30.2,3.2,29.59,SE,145,0.0,0.0,31,0.00,,,0.00,VWS V14.01,2013-03-14 06:22:00,
2013-03-14 02:37:00,29.7,2.7,29.62,SE,131,0.0,0.0,31,0.00,,,0.00,VWS V14.01,2013-03-14 06:37:00,
2013-03-14 02:52:00,29.7,2.7,29.62,West,270,0.0,0.0,31,0.00,,,0.00,VWS V14.01,2013-03-14 06:52:00,
2013-03-14 03:07:00,29.8,2.9,29.62,South,174,0.0,0.0,31,0.00,,,0.00,VWS V14.01,2013-03-14 07:07:00,
2013-03-14 03:22:00,30.0,3.1,29.59,SSE,167,0.0,0.0,31,0.00,,,0.00,VWS V14.01,2013-03-14 07:22:00,
2013-03-14 03:37:00,29.8,2.9,29.59,South,187,0.0,0.0,31,0.00,,,0.00,VWS V14.01,2013-03-14 07:37:00,
2013-03-14 03:52:00,29.8,2.9,29.62,SSE,155,0.0,0.0,31,0.00,,,0.00,VWS V14.01,2013-03-14 07:52:00,
2013-03-14 04:07:00,29.7,2.7,29.62,South,185,0.0,0.0,31,0.00,,,0.00,VWS V14.01,2013-03-14 08:07:00,
2013-03-14 04:22:00,29.7,2.7,29.62,East,96,0.0,0.0,31,0.00,,,0.00,VWS V14.01,2013-03-14 08:22:00,
2013-03-14 04:37:00,29.7,2.7,29.62,South,177,0.0,0.0,31,0.00,,,0.00,VWS V14.01,2013-03-14 08:37:00,
2013-03-14 04:52:00,29.7,2.0,29.59,North,349,0.0,0.0,30,0.00,,,0.00,VWS V14.01,2013-03-14 08:52:00,
2013-03-14 05:06:00,29.5,1.9,29.59,North,8,0.0,0.0,30,0.00,,,0.00,VWS V14.01,2013-03-14 09:06:00,
2013-03-14 05:21:00,29.5,1.9,29.59,South,190,0.0,0.0,30,0.00,,,0.00,VWS V14.01,2013-03-14 09:21:00,
2013-03-14 05:37:00,29.7,2.0,29.62,East,83,0.0,0.0,30,0.00,,,0.00,VWS V14.01,2013-03-14 09:37:00,
2013-03-14 05:52:00,30.0,2.3,29.62,SSE,152,0.0,0.0,30,0.00,,,0.00,VWS V14.01,2013-03-14 09:52:00,
2013-03-14 06:07:00,29.8,0.7,29.62,East,82,0.0,0.0,28,0.00,,,0.00,VWS V14.01,2013-03-14 10:07:00,
2013-03-14 06:22:00,29.8,0.7,29.62,South,185,0.0,0.0,28,0.00,,,0.00,VWS V14.01,2013-03-14 10:22:00,
2013-03-14 06:37:00,30.0,0.9,29.65,SW,220,0.0,0.0,28,0.00,,,0.00,VWS V14.01,2013-03-14 10:37:00,
2013-03-14 06:52:00,29.7,0.6,29.65,East,98,0.0,0.0,28,0.00,,,0.00,VWS V14.01,2013-03-14 10:52:00,
2013-03-14 07:07:00,29.5,0.4,29.65,NNE,17,0.0,0.0,28,0.00,,,0.00,VWS V14.01,2013-03-14 11:07:00,
2013-03-14 07:22:00,29.5,0.4,29.65,West,280,0.0,0.0,28,0.00,,,0.00,VWS V14.01,2013-03-14 11:22:00,
2013-03-14 07:37:00,29.3,0.2,29.65,SE,142,0.0,0.0,28,0.00,,,0.00,VWS V14.01,2013-03-14 11:37:00,
2013-03-14 07:52:00,29.5,0.4,29.65,ESE,107,0.0,0.0,28,0.00,,,0.00,VWS V14.01,2013-03-14 11:52:00,
2013-03-14 08:07:00,29.3,0.2,29.68,East,88,0.0,0.0,28,0.00,,,0.00,VWS V14.01,2013-03-14 12:07:00,
2013-03-14 08:22:00,29.5,0.4,29.68,South,187,0.0,0.0,28,0.00,,,0.00,VWS V14.01,2013-03-14 12:22:00,
2013-03-14 08:36:00,29.5,0.4,29.68,ESE,118,0.0,0.0,28,0.00,,,0.00,VWS V14.01,2013-03-14 12:36:00,
2013-03-14 08:52:00,29.7,0.6,29.68,NNW,339,0.0,0.0,28,0.00,,,0.00,VWS V14.01,2013-03-14 12:52:00,
2013-03-14 09:07:00,30.0,0.9,29.68,NNW,333,0.0,0.0,28,0.00,,,0.00,VWS V14.01,2013-03-14 13:07:00,
2013-03-14 09:21:00,30.2,1.0,29.68,SE,136,0.0,0.0,28,0.00,,,0.00,VWS V14.01,2013-03-14 13:21:00,
2013-03-14 09:36:00,30.6,1.4,29.68,ESE,123,0.0,0.0,28,0.00,,,0.00,VWS V14.01,2013-03-14 13:36:00,
2013-03-14 09:51:00,31.6,2.3,29.68,North,2,0.0,0.0,28,0.00,,,0.00,VWS V14.01,2013-03-14 13:51:00,
2013-03-14 10:06:00,31.5,2.1,29.68,SE,137,2.7,3.1,28,0.00,,,0.00,VWS V14.01,2013-03-14 14:06:00,
2013-03-14 10:22:00,32.9,0.9,29.68,South,179,4.9,5.8,25,0.00,,,0.00,VWS V14.01,2013-03-14 14:22:00,
2013-03-14 10:37:00,32.4,0.5,29.68,ENE,68,4.0,6.3,25,0.00,,,0.00,VWS V14.01,2013-03-14 14:37:00,
2013-03-14 10:52:00,32.5,0.6,29.68,East,91,3.1,4.0,25,0.00,,,0.00,VWS V14.01,2013-03-14 14:52:00,
2013-03-14 11:21:00,34.2,2.0,29.68,East,99,4.0,4.9,25,0.00,,,0.00,VWS V14.01,2013-03-14 15:21:00,
2013-03-14 11:37:00,35.8,2.5,29.68,NW,313,4.0,4.0,24,0.00,,,0.00,VWS V14.01,2013-03-14 15:37:00,
2013-03-14 11:52:00,35.1,2.8,29.68,East,90,3.1,6.3,25,0.00,,,0.00,VWS V14.01,2013-03-14 15:52:00,
2013-03-14 12:07:00,36.0,2.7,29.65,ESE,102,0.0,4.0,24,0.00,,,0.00,VWS V14.01,2013-03-14 16:07:00,
2013-03-14 12:22:00,35.8,2.5,29.65,East,86,3.1,8.3,24,0.00,,,0.00,VWS V14.01,2013-03-14 16:22:00,
2013-03-14 12:36:00,36.0,2.7,29.65,NNE,29,8.3,8.3,24,0.00,,,0.00,VWS V14.01,2013-03-14 16:36:00,
2013-03-14 12:51:00,37.6,4.1,29.65,SE,144,5.8,8.3,24,0.00,,,0.00,VWS V14.01,2013-03-14 16:51:00,
2013-03-14 13:21:00,38.5,4.8,29.62,SSW,196,0.0,8.3,24,0.00,,,0.00,VWS V14.01,2013-03-14 17:21:00,
2013-03-14 13:37:00,37.9,4.4,29.62,North,0,2.2,8.3,24,0.00,,,0.00,VWS V14.01,2013-03-14 17:37:00,
2013-03-14 13:52:00,39.7,5.0,29.62,ENE,75,6.3,6.3,23,0.00,,,0.00,VWS V14.01,2013-03-14 17:52:00,
2013-03-14 14:06:00,39.7,5.0,29.62,ENE,77,4.9,6.3,23,0.00,,,0.00,VWS V14.01,2013-03-14 18:06:00,
2013-03-14 14:21:00,41.0,6.1,29.59,SE,137,8.7,8.7,23,0.00,,,0.00,VWS V14.01,2013-03-14 18:21:00,
2013-03-14 14:37:00,41.2,6.2,29.59,North,0,2.7,8.7,23,0.00,,,0.00,VWS V14.01,2013-03-14 18:37:00,
2013-03-14 14:52:00,42.1,7.0,29.59,NE,45,2.7,4.9,23,0.00,,,0.00,VWS V14.01,2013-03-14 18:52:00,
2013-03-14 15:06:00,42.8,7.6,29.56,NNE,25,2.2,4.9,23,0.00,,,0.00,VWS V14.01,2013-03-14 19:06:00,
2013-03-14 15:22:00,43.2,7.9,29.56,SW,227,2.7,5.4,23,0.00,,,0.00,VWS V14.01,2013-03-14 19:22:00,
2013-03-14 15:37:00,44.2,8.8,29.56,North,353,3.6,5.4,23,0.00,,,0.00,VWS V14.01,2013-03-14 19:37:00,
2013-03-14 15:52:00,44.8,8.3,29.56,SSE,160,8.3,8.3,22,0.00,,,0.00,VWS V14.01,2013-03-14 19:52:00,
2013-03-14 16:06:00,44.4,8.9,29.53,North,0,8.1,8.3,23,0.00,,,0.00,VWS V14.01,2013-03-14 20:06:00,
2013-03-14 16:22:00,44.6,8.1,29.53,South,169,5.4,10.1,22,0.00,,,0.00,VWS V14.01,2013-03-14 20:22:00,
2013-03-14 16:37:00,46.0,9.3,29.53,NE,50,3.1,5.4,22,0.00,,,0.00,VWS V14.01,2013-03-14 20:37:00,
2013-03-14 16:51:00,44.6,8.1,29.53,SSE,158,0.0,3.6,22,0.00,,,0.00,VWS V14.01,2013-03-14 20:51:00,
2013-03-14 17:07:00,43.7,8.3,29.53,ESE,109,4.9,5.4,23,0.00,,,0.00,VWS V14.01,2013-03-14 21:07:00,
2013-03-14 17:22:00,43.3,8.0,29.53,SE,142,3.1,5.8,23,0.00,,,0.00,VWS V14.01,2013-03-14 21:22:00,
2013-03-14 17:37:00,43.3,8.0,29.53,SE,129,3.6,4.9,23,0.00,,,0.00,VWS V14.01,2013-03-14 21:37:00,
2013-03-14 17:51:00,43.3,8.0,29.53,SSW,197,2.7,4.9,23,0.00,,,0.00,VWS V14.01,2013-03-14 21:51:00,
2013-03-14 18:07:00,42.3,7.1,29.53,East,89,0.0,2.7,23,0.00,,,0.00,VWS V14.01,2013-03-14 22:07:00,
2013-03-14 18:22:00,42.3,7.1,29.53,SE,139,4.0,4.0,23,0.00,,,0.00,VWS V14.01,2013-03-14 22:22:00,
2013-03-14 18:36:00,42.1,7.0,29.53,East,96,0.0,4.0,23,0.00,,,0.00,VWS V14.01,2013-03-14 22:36:00,
2013-03-14 18:51:00,42.1,7.0,29.53,SW,235,0.0,4.9,23,0.00,,,0.00,VWS V14.01,2013-03-14 22:51:00,
2013-03-14 19:06:00,41.2,6.2,29.53,South,188,0.0,0.0,23,0.00,,,0.00,VWS V14.01,2013-03-14 23:06:00,
2013-03-14 19:21:00,41.0,6.1,29.53,WSW,239,0.0,0.0,23,0.00,,,0.00,VWS V14.01,2013-03-14 23:21:00,
2013-03-14 19:36:00,39.6,4.8,29.53,West,259,0.0,0.0,23,0.00,,,0.00,VWS V14.01,2013-03-14 23:36:00,
2013-03-14 20:07:00,38.1,4.5,29.53,WSW,243,0.0,0.0,24,0.00,,,0.00,VWS V14.01,2013-03-15 00:07:00,
2013-03-14 20:22:00,36.7,3.3,29.53,WSW,243,0.0,0.0,24,0.00,,,0.00,VWS V14.01,2013-03-15 00:22:00,
2013-03-14 20:37:00,36.0,2.7,29.53,WSW,243,0.0,0.0,24,0.00,,,0.00,VWS V14.01,2013-03-15 00:37:00,
2013-03-14 20:51:00,35.4,3.1,29.53,WSW,243,0.0,0.0,25,0.00,,,0.00,VWS V14.01,2013-03-15 00:51:00,
2013-03-14 21:07:00,34.7,2.5,29.53,WSW,243,0.0,0.0,25,0.00,,,0.00,VWS V14.01,2013-03-15 01:07:00,
2013-03-14 21:22:00,34.3,2.2,29.53,WSW,243,0.0,0.0,25,0.00,,,0.00,VWS V14.01,2013-03-15 01:22:00,
2013-03-14 21:37:00,33.8,1.7,29.53,WSW,243,0.0,0.0,25,0.00,,,0.00,VWS V14.01,2013-03-15 01:37:00,
2013-03-14 21:52:00,33.6,1.6,29.53,WSW,243,0.0,0.0,25,0.00,,,0.00,VWS V14.01,2013-03-15 01:52:00,
2013-03-14 22:07:00,32.9,0.9,29.53,WSW,243,0.0,0.0,25,0.00,,,0.00,VWS V14.01,2013-03-15 02:07:00,
2013-03-14 22:21:00,32.4,0.5,29.53,WSW,243,0.0,0.0,25,0.00,,,0.00,VWS V14.01,2013-03-15 02:21:00,
2013-03-14 22:37:00,31.8,0.0,29.56,WSW,243,0.0,0.0,25,0.00,,,0.00,VWS V14.01,2013-03-15 02:37:00,
2013-03-14 22:51:00,31.5,-0.3,29.56,WSW,243,0.0,0.0,25,0.00,,,0.00,VWS V14.01,2013-03-15 02:51:00,
2013-03-14 23:07:00,31.1,-0.6,29.56,WSW,243,0.0,0.0,25,0.00,,,0.00,VWS V14.01,2013-03-15 03:07:00,
2013-03-14 23:22:00,30.7,-0.9,29.56,WSW,243,0.0,0.0,25,0.00,,,0.00,VWS V14.01,2013-03-15 03:22:00,
2013-03-14 23:37:00,30.6,-1.1,29.56,WSW,243,0.0,0.0,25,0.00,,,0.00,VWS V14.01,2013-03-15 03:37:00,
2013-03-14 23:51:00,30.2,1.0,29.56,WSW,243,0.0,0.0,28,0.00,,,0.00,VWS V14.01,2013-03-15 03:51:00,